Meath Environmental Platform

Observations for Trim Patrick St

Time AQI Temp °C Hum % Pres Pa CO μg/m³ H₂S μg/m³ NO μg/m³ NO₂ μg/m³ O₃ μg/m³ SO₂ μg/m³ PM1 μg/m³ PM2.5 μg/m³ PM10 μg/m³
Monday 3 August 2026
14:01 3 29.5 37 69,163 0 12.53 1.25 33.4 150.29 10.74 5.43 11.22 12.34
14:00 3 29.6 36 69,163 0 8.96 1.27 24.38 127.19 11.23 4.57 11.25 12.37
13:59 3 29.6 38 69,171 0 8.67 1.22 28.56 132.49 10.94 6.29 11.9 13.09
13:58 3 29.6 37 69,177 0 16.78 1.23 24.6 153.17 12.39 2.86 9.59 10.55
13:57 3 29.6 37 69,183 0 10.89 1.19 24.89 154.05 11.59 4.57 10.4 11.44
13:56 3 29.7 37 69,195 0 10.97 1.23 24.32 155.17 11.66 4.57 11.16 12.27
13:55 3 29.7 37 69,204 0 8.5 1.26 25.73 181.31 11.5 7.14 13.56 14.92
13:54 3 29.7 37 69,193 0 9.65 1.35 22.53 130.88 11.82 3.71 9.62 10.58
13:53 3 29.8 37 69,177 0 12.19 1.42 27.06 170.48 12.07 3.71 9.63 10.6
13:52 3 29.9 36 69,181 0 9.05 1.44 28.9 183.33 11.44 3.71 10.44 11.48
13:50 3 30 37 69,195 0 9.07 1.48 26.5 149.43 11.79 3.71 10.43 11.47
13:49 3 30.1 36 69,202 0 8.68 1.46 29.74 144.65 11.05 5.43 12.02 13.23
13:47 3 30.2 36 69,220 0 10.79 1.41 27.31 200.85 12.99 5.43 11.28 12.41
13:46 3 30.3 36 69,204 0 5.45 1.4 25.75 148.3 11.36 4.57 12.09 13.3
13:45 3 30.3 35 69,214 0 4.62 1.4 26.76 158.02 11.7 4.57 10.53 11.58
13:41 2 30.4 36 69,220 0 10.05 1.39 26.77 184.03 12.45 4.57 10.49 11.54
13:40 2 30.4 35 69,232 0 9.6 1.38 35.24 197.67 11.11 3.71 11.32 12.45
13:39 2 30.4 34 69,220 0 0 1.4 20 91.64 11.29 3.71 10.6 11.66
13:38 2 30.4 35 69,232 0 8.68 1.44 34.05 212.82 11.41 4.57 10.57 11.62
13:37 2 30.3 35 69,216 0 0.22 1.46 25.27 185.38 11.06 3.71 10.56 11.62